Showing default

IRIDIUM 129, 42958

Orbit data source: Space-Track

IRIDIUM 129, 42958 is a payload satellite owned by Iridium (US) in LEO that was launched on Mon, 09 Oct 2017 UTC via an FALCON 9 launch vehicle from the Air Force Western Test Range (AFWTR). Payload-class satellites include a variety of spacecraft equipped with specific instruments for various scientific and technological missions. These include communications satellites like Starlink; space stations such as the ISS; scientific satellites like the Hubble; Earth observation satellites from companies like Planet Labs, Umbra, and HawkEye 360; GPS; miniature CubeSats for education and research; and military/defense satellites.

Loading next visibility...
Identifier
42958, 2017-061D
Orbit
LEO
Country
Flag of USUS
Related business
Manufacturer
OATK SSG Gilbert
Mission
Operational Commercial Communications
Bus & Motor
ELITEBUS, Unknown motor
Mass
860 kg wet, 700 kg dry
Launch date (UTC)
2017-10-09 (8 years ago)
Launch vehicle
FALCON 9
Launch site
Air Force Western Test Range (AFWTR)
Object type
Payload
Rocket body
Debris
Shape & HBR
Trap Box + 2 Pan, 4.7 m
Radar Cross Section
14.423 m², Large (>1 m²)

Expand to show TLE details & history
Last TLE update: 12 hours ago

TLE from 12 hours ago
0 IRIDIUM 129
1 42958U 17061D   25258.75882687  .00000029  00000-0  32995-5 0  9990
2 42958  86.4000 139.9984 0001711  89.3229 270.8162 14.34217645415467
Epoch: 2025-09-15T18:12Z
TLE epoch observation values (Epoch: 2025-09-15T18:12:42.641Z)
Latitude
-0.00011°
Longitude
-128.13816°
Altitude
780.701 km
Speed
7.464 km/s
True Right ascension
09h 19m 59s
True Declination
0° 00' 00"
Sunlit
Object was in daylight at epoch
Visualization orbit readout
Latitude
Unknown
Longitude
Unknown
Altitude
Unknown
Speed
Unknown
Apparent Right ascension
Unknown
Apparent Declination
Unknown
Sunlit
N/A
Visualization observer readout
Local Sidereal Time
23:04:28
Azimuth
Unknown
Elevation
Unknown
Doppler factor
Unknown
Orbital elements
Apogee altitude
775.856 km
Perigee altitude
773.408 km
Semi-major axis
7,152.769 km
Eccentricity
0.00017
Inclination
86.4°
RAAN
139.9984°
Arg. of periapsis
89.3229°
True anomaly
270.7966°
Mean anomaly
270.8162°
Eccentric anomaly
270.8064°
Mean motion
3.58783 °/min
Orbital period
100.34 mins
BSTAR
0.0000032995
Loading maneuver chart data...
Computing Atmospheric mass density...
Loading historical data...
Loading historical data...
Loading historical data...
Loading historical data...
Loading historical data...
Loading historical data...
Loading historical data...

Documentation

Showing up to 5 results
|